EA1BQO-1 Weather Reports


time (UTC)temp
C
wind
direction
speed
KPH
gust
KPH
rain 1hr
cm
rain 24hr
cm
rain mn
cm
humidity
%
barometer
mb
20260902083158 18 239 1.6 6.4 0.00 0.00 0.00 71 1020.6
20260902082258 18 294 0.0 8.0 0.00 0.00 0.00 74 1020.5
20260902081358 17 190 0.0 4.8 0.00 0.00 0.00 77 1020.5
20260902080458 17 243 0.0 3.2 0.00 0.00 0.00 79 1020.6
20260902075558 16 341 0.0 3.2 0.00 0.00 0.00 81 1020.6
20260902074658 16 97 0.0 3.2 0.00 0.00 0.00 84 1020.6
20260902073758 15 23 0.0 4.8 0.00 0.00 0.00 86 1020.5
20260902072858 15 38 3.2 6.4 0.00 0.00 0.00 87 1020.4
20260902071958 15 89 1.6 4.8 0.00 0.00 0.00 91 1020.3
20260902071058 13 80 0.0 3.2 0.00 0.00 0.00 93 1020.2
20260902070158 13 90 3.2 4.8 0.00 0.00 0.00 96 1020.4
20260902065258 12 81 0.0 6.4 0.00 0.00 0.00 97 1020.2
20260902064358 12 49 1.6 3.2 0.00 0.00 0.00 99 1020.3
20260902063458 11 57 0.0 3.2 0.00 0.00 0.00 99 1020.1
20260902062558 11 81 0.0 3.2 0.00 0.00 0.00 98 1020.1
20260902061658 11 97 0.0 3.2 0.00 0.00 0.00 97 1020.1
20260902060758 11 91 1.6 3.2 0.00 0.00 0.00 97 1020.1
20260902055858 11 87 0.0 3.2 0.00 0.00 0.00 97 1019.9
20260902054958 11 60 0.0 3.2 0.00 0.00 0.00 97 1019.9
20260902054058 11 68 1.6 4.8 0.00 0.00 0.00 97 1019.7
20260902053158 11 93 0.0 6.4 0.00 0.00 0.00 97 1019.6
20260902052258 11 103 3.2 4.8 0.00 0.00 0.00 96 1019.6
20260902051358 11 106 1.6 4.8 0.00 0.00 0.00 95 1019.5
20260902050458 11 92 3.2 4.8 0.00 0.00 0.00 95 1019.4
20260902045559 11 90 1.6 4.8 0.00 0.00 0.00 94 1019.5
20260902044658 11 80 0.0 3.2 0.00 0.00 0.00 93 1019.5
20260902043758 11 49 0.0 3.2 0.00 0.00 0.00 93 1019.4
20260902042858 11 90 0.0 3.2 0.00 0.00 0.00 93 1019.4
20260902041958 11 84 1.6 3.2 0.00 0.00 0.00 92 1019.4
20260902041058 12 50 0.0 4.8 0.00 0.00 0.00 93 1019.4
20260902040158 12 57 1.6 4.8 0.00 0.00 0.00 92 1019.4
20260902035258 12 83 0.0 4.8 0.00 0.00 0.00 92 1019.3
20260902034358 12 100 1.6 3.2 0.00 0.00 0.00 91 1019.5
20260902033458 12 91 1.6 4.8 0.00 0.00 0.00 91 1019.3
20260902032558 12 116 1.6 4.8 0.00 0.00 0.00 90 1019.2
20260902031658 12 125 0.0 3.2 0.00 0.00 0.00 89 1019.2
20260902030758 12 130 0.0 3.2 0.00 0.00 0.00 88 1019.3
20260902025858 12 128 3.2 3.2 0.00 0.00 0.00 87 1019.2
20260902024958 12 92 0.0 3.2 0.00 0.00 0.00 86 1019.2
20260902024058 12 127 0.0 3.2 0.00 0.00 0.00 84 1019.0
20260902023158 12 136 0.0 3.2 0.00 0.00 0.00 84 1019.1
20260902022258 13 82 0.0 3.2 0.00 0.00 0.00 84 1019.0
20260902021358 13 95 0.0 3.2 0.00 0.00 0.00 84 1019.0
20260902020458 13 78 1.6 6.4 0.00 0.00 0.00 84 1019.3
20260902015558 13 73 3.2 8.0 0.00 0.00 0.00 84 1019.3
20260902014658 13 76 0.0 8.0 0.00 0.00 0.00 84 1019.2
20260902013758 13 84 3.2 8.0 0.00 0.00 0.00 82 1019.2
20260902012858 13 91 1.6 8.0 0.00 0.00 0.00 81 1019.3
20260902011958 13 86 3.2 6.4 0.00 0.00 0.00 80 1019.3
20260902011058 13 90 1.6 6.4 0.00 0.00 0.00 79 1019.4
20260902010158 14 122 0.0 3.2 0.00 0.00 0.00 77 1019.5
20260902005258 14 117 1.6 3.2 0.00 0.00 0.00 77 1019.4
20260902004358 15 105 1.6 4.8 0.00 0.00 0.00 77 1019.6
20260902003458 15 102 1.6 8.0 0.00 0.00 0.00 77 1019.6
20260902002558 15 89 3.2 8.0 0.00 0.00 0.00 77 1019.4
20260902001658 15 93 1.6 8.0 0.00 0.00 0.00 75 1019.3
20260902000758 15 109 1.6 4.8 0.00 0.00 0.00 75 1019.2
20260901235858 15 91 1.6 6.4 0.00 0.00 0.00 74 1019.1
20260901234958 15 111 0.0 6.4 0.00 0.00 0.00 74 1019.1
20260901234058 15 86 3.2 6.4 0.00 0.00 0.00 74 1019.0
20260901233158 15 71 3.2 6.4 0.00 0.00 0.00 73 1019.3
20260901232258 15 80 1.6 6.4 0.00 0.00 0.00 72 1019.1
20260901231358 15 98 3.2 4.8 0.00 0.00 0.00 70 1019.0
20260901230458 16 111 0.0 3.2 0.00 0.00 0.00 68 1018.8
20260901225558 16 123 0.0 6.4 0.00 0.00 0.00 68 1018.9
20260901224658 16 122 3.2 6.4 0.00 0.00 0.00 68 1018.9
20260901223758 16 117 3.2 6.4 0.00 0.00 0.00 67 1019.0
20260901222858 16 133 3.2 4.8 0.00 0.00 0.00 66 1018.8
20260901221958 16 112 0.0 6.4 0.00 0.00 0.00 65 1018.9
20260901221058 17 129 3.2 6.4 0.00 0.00 0.00 64 1018.7
20260901220158 17 128 1.6 6.4 0.00 0.00 0.00 62 1018.7
20260901215258 17 94 0.0 3.2 0.00 0.00 0.00 60 1018.6
20260901214358 17 130 0.0 8.0 0.00 0.00 0.00 60 1018.5
20260901213458 18 131 3.2 6.4 0.00 0.00 0.00 59 1018.5
20260901212558 18 130 3.2 6.4 0.00 0.00 0.00 56 1018.5
20260901211658 18 119 3.2 6.4 0.00 0.00 0.00 56 1018.4
20260901210758 19 132 3.2 4.8 0.00 0.00 0.00 53 1018.3
20260901205858 20 129 0.0 3.2 0.00 0.00 0.00 50 1018.3
20260901204958 20 158 3.2 3.2 0.00 0.00 0.00 48 1018.1
20260901204058 20 262 0.0 4.8 0.00 0.00 0.00 46 1017.8
20260901203158 21 317 0.0 3.2 0.00 0.00 0.00 44 1017.7
20260901202258 21 280 0.0 4.8 0.00 0.00 0.00 42 1017.6
20260901201358 22 273 1.6 6.4 0.00 0.00 0.00 40 1017.4
20260901200458 22 303 3.2 8.0 0.00 0.00 0.00 39 1017.3
20260901195558 22 248 1.6 4.8 0.00 0.00 0.00 38 1017.2
20260901194658 22 273 1.6 4.8 0.00 0.00 0.00 36 1017.1
20260901193758 23 245 1.6 6.4 0.00 0.00 0.00 35 1016.9
20260901192858 23 218 3.2 8.0 0.00 0.00 0.00 33 1016.7
20260901191958 24 230 1.6 9.7 0.00 0.00 0.00 31 1016.6
20260901191058 24 238 3.2 9.7 0.00 0.00 0.00 30 1016.6
20260901190158 25 236 1.6 9.7 0.00 0.00 0.00 27 1016.4
20260901185258 25 243 3.2 8.0 0.00 0.00 0.00 27 1016.3
20260901184358 26 230 4.8 11.3 0.00 0.00 0.00 25 1016.1
20260901183458 27 239 3.2 9.7 0.00 0.00 0.00 23 1016.1
20260901182558 27 251 3.2 9.7 0.00 0.00 0.00 20 1015.9
20260901181658 28 273 3.2 9.7 0.00 0.00 0.00 17 1015.9
20260901180758 28 270 3.2 9.7 0.00 0.00 0.00 14 1015.8
20260901175858 28 263 4.8 12.9 0.00 0.00 0.00 13 1015.7
20260901174958 28 274 4.8 12.9 0.00 0.00 0.00 10 1015.9
20260901174058 29 248 3.2 12.9 0.00 0.00 0.00 10 1015.7
20260901173158 29 284 3.2 11.3 0.00 0.00 0.00 10 1015.7
20260901172258 29 230 3.2 12.9 0.00 0.00 0.00 10 1015.5
20260901171358 30 272 6.4 12.9 0.00 0.00 0.00 10 1015.6
20260901170458 30 294 4.8 12.9 0.00 0.00 0.00 10 1015.5
20260901165558 30 240 4.8 12.9 0.00 0.00 0.00 10 1015.4
20260901164658 30 266 3.2 12.9 0.00 0.00 0.00 10 1015.4
20260901163758 30 270 8.0 12.9 0.00 0.00 0.00 10 1015.5
20260901162858 30 255 4.8 12.9 0.00 0.00 0.00 10 1015.4
20260901161958 30 296 6.4 12.9 0.00 0.00 0.00 10 1015.4
20260901161058 30 300 3.2 11.3 0.00 0.00 0.00 10 1015.5
20260901160158 30 286 3.2 12.9 0.00 0.00 0.00 10 1015.4
20260901155258 30 258 6.4 11.3 0.00 0.00 0.00 10 1015.3
20260901154358 30 271 6.4 14.5 0.00 0.00 0.00 10 1015.3
20260901153458 30 267 3.2 12.9 0.00 0.00 0.00 10 1015.5
20260901152558 30 238 3.2 12.9 0.00 0.00 0.00 10 1015.4
20260901151658 30 260 3.2 11.3 0.00 0.00 0.00 10 1015.7
20260901150758 29 81 4.8 8.0 0.00 0.00 0.00 10 1015.7
20260901145858 29 317 3.2 12.9 0.00 0.00 0.00 10 1015.7
20260901144958 29 246 1.6 12.9 0.00 0.00 0.00 10 1015.7
20260901144058 29 264 3.2 14.5 0.00 0.00 0.00 10 1015.7
20260901143158 29 271 4.8 14.5 0.00 0.00 0.00 10 1015.9
20260901142258 29 297 4.8 16.1 0.00 0.00 0.00 10 1015.9
20260901141358 29 272 3.2 16.1 0.00 0.00 0.00 10 1015.8
20260901140458 28 233 3.2 12.9 0.00 0.00 0.00 11 1015.8
20260901135558 28 265 3.2 12.9 0.00 0.00 0.00 12 1015.8
20260901134658 28 284 3.2 14.5 0.00 0.00 0.00 13 1016.0
20260901133758 28 220 4.8 12.9 0.00 0.00 0.00 12 1016.2
20260901132858 28 229 6.4 14.5 0.00 0.00 0.00 14 1016.4
20260901131958 28 217 4.8 16.1 0.00 0.00 0.00 13 1016.4
20260901131058 27 341 8.0 16.1 0.00 0.00 0.00 13 1016.6
20260901130158 27 292 8.0 20.9 0.00 0.00 0.00 15 1016.7
20260901125258 27 257 4.8 16.1 0.00 0.00 0.00 19 1016.8
20260901124358 27 234 1.6 12.9 0.00 0.00 0.00 21 1016.7
20260901123458 26 247 3.2 12.9 0.00 0.00 0.00 22 1016.7
20260901122558 26 262 4.8 11.3 0.00 0.00 0.00 24 1016.9
20260901121658 26 259 6.4 9.7 0.00 0.00 0.00 25 1017.0
20260901120758 26 52 3.2 9.7 0.00 0.00 0.00 26 1017.1
20260901115858 26 328 4.8 11.3 0.00 0.00 0.00 27 1017.0
20260901114958 25 320 1.6 8.0 0.00 0.00 0.00 30 1017.0
20260901114058 25 10 0.0 6.4 0.00 0.00 0.00 35 1017.2
20260901113158 24 303 1.6 6.4 0.00 0.00 0.00 37 1017.3
20260901112258 24 312 3.2 6.4 0.00 0.00 0.00 40 1017.4
20260901111358 23 303 0.0 9.7 0.00 0.00 0.00 44 1017.5
20260901110458 22 288 0.0 6.4 0.00 0.00 0.00 48 1017.7
20260901105558 22 241 3.2 6.4 0.00 0.00 0.00 50 1017.7
20260901104658 21 278 3.2 9.7 0.00 0.00 0.00 50 1018.0
20260901103758 21 271 3.2 8.0 0.00 0.00 0.00 54 1018.1
20260901102858 20 297 1.6 8.0 0.00 0.00 0.00 58 1018.1
20260901101958 20 302 3.2 8.0 0.00 0.00 0.00 59 1018.1
20260901101058 20 330 6.4 8.0 0.00 0.00 0.00 58 1018.3
20260901100158 20 69 1.6 4.8 0.00 0.00 0.00 60 1018.3
20260901095258 20 44 3.2 6.4 0.00 0.00 0.00 61 1018.3
20260901094358 20 323 3.2 6.4 0.00 0.00 0.00 65 1018.3
20260901093458 18 269 1.6 6.4 0.00 0.00 0.00 67 1018.4
20260901092558 18 283 3.2 9.7 0.00 0.00 0.00 68 1018.5
20260901091658 18 293 3.2 11.3 0.00 0.00 0.00 71 1018.6
20260901090758 17 290 3.2 6.4 0.00 0.00 0.00 74 1018.5
20260901085858 16 283 3.2 8.0 0.00 0.00 0.00 76 1018.5
20260901084958 16 274 0.0 8.0 0.00 0.00 0.00 77 1018.4
20260901084058 16 270 3.2 6.4 0.00 0.00 0.00 75 1018.5